When you browse on this site, cookies collect data to enhance your experience and personalize the content and advertising you see.
Visit our Privacy Policy to learn more. By continuing to use the site, you agree to this use of cookies and data.

Hourly Weather Calgari

Today, 15 August, Saturday

Time Temperature Precipitation Wind Pressure Humidity
00:00 +25°C° 0 mm 2 mps 758 mmHg 67%
01:00 +24°C° 0 mm 1 mps 758 mmHg 63%
02:00 +25°C° 0 mm 2 mps 757 mmHg 58%
03:00 +25°C° 0 mm 3 mps 757 mmHg 52%
04:00 +26°C° 0 mm 3 mps 757 mmHg 47%
05:00 +27°C° 0 mm 3 mps 757 mmHg 44%
06:00 +28°C° 0 mm 2 mps 757 mmHg 41%
07:00 +30°C° 0 mm 2 mps 757 mmHg 36%
08:00 +32°C° 0.1 mm 2 mps 757 mmHg 33%
09:00 +35°C° 0.1 mm 2 mps 758 mmHg 30%
10:00 +36°C° 0.1 mm 2 mps 758 mmHg 27%
11:00 +37°C° 0.1 mm 2 mps 758 mmHg 30%
12:00 +37°C° 0.1 mm 3 mps 758 mmHg 32%
13:00 +36°C° 0 mm 3 mps 758 mmHg 36%
14:00 +36°C° 0 mm 3 mps 758 mmHg 36%
15:00 +36°C° 0 mm 3 mps 758 mmHg 36%
16:00 +36°C° 0 mm 3 mps 757 mmHg 36%
17:00 +34°C° 0 mm 3 mps 757 mmHg 39%
18:00 +32°C° 0 mm 2 mps 757 mmHg 41%
19:00 +31°C° 0 mm 1 mps 756 mmHg 43%
20:00 +29°C° 0 mm 1 mps 756 mmHg 47%
21:00 +28°C° 0 mm 2 mps 757 mmHg 50%
22:00 +27°C° 0 mm 2 mps 757 mmHg 53%
23:00 +26°C° 0 mm 2 mps 757 mmHg 52%

Tomorrow, 16 August, Sunday

Time Temperature Precipitation Wind Pressure Humidity
00:00 +26°C° 0 mm 2 mps 756 mmHg 51%
01:00 +26°C° 0 mm 1 mps 756 mmHg 50%
02:00 +26°C° 0 mm 1 mps 756 mmHg 50%
03:00 +26°C° 0 mm 1 mps 756 mmHg 49%
04:00 +26°C° 0 mm 1 mps 756 mmHg 49%
05:00 +27°C° 0 mm 1 mps 756 mmHg 48%
06:00 +28°C° 0 mm 1 mps 756 mmHg 46%
07:00 +29°C° 0 mm 1 mps 756 mmHg 45%
08:00 +31°C° 0 mm 2 mps 756 mmHg 41%
09:00 +34°C° 0 mm 2 mps 757 mmHg 38%
10:00 +36°C° 0 mm 2 mps 757 mmHg 35%
11:00 +36°C° 0 mm 3 mps 757 mmHg 36%
12:00 +37°C° 0 mm 3 mps 757 mmHg 36%
13:00 +37°C° 0 mm 4 mps 757 mmHg 36%
14:00 +37°C° 0 mm 4 mps 757 mmHg 36%
15:00 +37°C° 0 mm 5 mps 757 mmHg 36%
16:00 +37°C° 0 mm 5 mps 756 mmHg 36%
17:00 +35°C° 0 mm 5 mps 756 mmHg 38%
18:00 +34°C° 0 mm 4 mps 756 mmHg 39%
19:00 +33°C° 0 mm 4 mps 756 mmHg 41%
20:00 +30°C° 0 mm 4 mps 756 mmHg 46%
21:00 +29°C° 0 mm 4 mps 757 mmHg 50%
22:00 +27°C° 0 mm 4 mps 757 mmHg 55%
23:00 +26°C° 0 mm 3 mps 757 mmHg 56%

Day after tomorrow, 17 August, Monday

Time Temperature Precipitation Wind Pressure Humidity
00:00 +26°C° 0 mm 3 mps 757 mmHg 57%
01:00 +25°C° 0 mm 3 mps 756 mmHg 58%
02:00 +25°C° 0 mm 3 mps 756 mmHg 58%
03:00 +24°C° 0 mm 3 mps 756 mmHg 57%
04:00 +24°C° 0 mm 3 mps 756 mmHg 57%
05:00 +25°C° 0 mm 3 mps 756 mmHg 55%
06:00 +26°C° 0 mm 3 mps 756 mmHg 52%
07:00 +27°C° 0 mm 3 mps 756 mmHg 50%
08:00 +29°C° 0 mm 3 mps 757 mmHg 44%
09:00 +31°C° 0 mm 3 mps 757 mmHg 38%
10:00 +35°C° 0 mm 3 mps 757 mmHg 32%
11:00 +36°C° 0 mm 3 mps 757 mmHg 31%
12:00 +37°C° 0 mm 4 mps 757 mmHg 30%
13:00 +39°C° 0 mm 5 mps 757 mmHg 29%
14:00 +39°C° 0 mm 5 mps 757 mmHg 27%
15:00 +39°C° 0 mm 5 mps 757 mmHg 26%
16:00 +39°C° 0 mm 6 mps 757 mmHg 24%
17:00 +36°C° 0 mm 6 mps 757 mmHg 33%
18:00 +33°C° 0 mm 5 mps 756 mmHg 41%
19:00 +30°C° 0 mm 5 mps 756 mmHg 50%
20:00 +28°C° 0 mm 5 mps 757 mmHg 59%
21:00 +26°C° 0 mm 4 mps 757 mmHg 69%
22:00 +25°C° 0 mm 4 mps 757 mmHg 78%
23:00 +24°C° 0 mm 3 mps 757 mmHg 75%

18 August, Tuesday

Time Temperature Precipitation Wind Pressure Humidity
00:00 +24°C° 0 mm 3 mps 757 mmHg 72%
01:00 +24°C° 0 mm 2 mps 757 mmHg 69%
02:00 +24°C° 0 mm 2 mps 757 mmHg 66%
03:00 +24°C° 0 mm 2 mps 756 mmHg 63%
04:00 +23°C° 0 mm 2 mps 756 mmHg 60%
05:00 +25°C° 0 mm 3 mps 756 mmHg 54%
06:00 +26°C° 0 mm 3 mps 757 mmHg 48%
07:00 +27°C° 0 mm 3 mps 757 mmHg 41%
08:00 +30°C° 0 mm 3 mps 757 mmHg 35%
09:00 +33°C° 0 mm 3 mps 757 mmHg 30%
10:00 +36°C° 0 mm 3 mps 757 mmHg 24%
11:00 +37°C° 0 mm 3 mps 757 mmHg 24%
12:00 +37°C° 0 mm 4 mps 757 mmHg 24%
13:00 +38°C° 0 mm 4 mps 757 mmHg 24%
14:00 +37°C° 0 mm 4 mps 757 mmHg 25%
15:00 +37°C° 0 mm 5 mps 757 mmHg 25%
16:00 +37°C° 0 mm 5 mps 756 mmHg 26%
17:00 +35°C° 0 mm 5 mps 756 mmHg 33%
18:00 +33°C° 0 mm 5 mps 756 mmHg 41%
19:00 +29°C° 0 mm 5 mps 756 mmHg 48%
20:00 +28°C° 0 mm 5 mps 756 mmHg 54%
21:00 +27°C° 0 mm 4 mps 757 mmHg 60%
22:00 +26°C° 0 mm 4 mps 757 mmHg 66%
23:00 +26°C° 0 mm 4 mps 757 mmHg 65%

19 August, Wednesday

Time Temperature Precipitation Wind Pressure Humidity
00:00 +27°C° 0 mm 4 mps 757 mmHg 64%
01:00 +27°C° 0 mm 4 mps 757 mmHg 64%
02:00 +26°C° 0 mm 3 mps 756 mmHg 64%
03:00 +25°C° 0 mm 3 mps 756 mmHg 65%
04:00 +25°C° 0 mm 3 mps 756 mmHg 66%
05:00 +25°C° 0 mm 3 mps 756 mmHg 61%
06:00 +26°C° 0 mm 3 mps 756 mmHg 56%
07:00 +27°C° 0 mm 3 mps 756 mmHg 51%
08:00 +30°C° 0 mm 3 mps 756 mmHg 43%
09:00 +32°C° 0 mm 2 mps 757 mmHg 36%
10:00 +36°C° 0 mm 2 mps 757 mmHg 28%
11:00 +37°C° 0 mm 3 mps 757 mmHg 28%
12:00 +37°C° 0 mm 4 mps 757 mmHg 28%
13:00 +39°C° 0 mm 5 mps 757 mmHg 28%
14:00 +37°C° 0 mm 5 mps 756 mmHg 31%
15:00 +36°C° 0 mm 5 mps 756 mmHg 33%
16:00 +35°C° 0 mm 5 mps 756 mmHg 36%
17:00 +33°C° 0 mm 4 mps 756 mmHg 40%
18:00 +32°C° 0 mm 4 mps 756 mmHg 44%
19:00 +29°C° 0 mm 3 mps 756 mmHg 48%
20:00 +28°C° 0 mm 3 mps 756 mmHg 51%
21:00 +27°C° 0 mm 3 mps 756 mmHg 55%
22:00 +26°C° 0 mm 2 mps 756 mmHg 58%
23:00 +25°C° 0 mm 2 mps 756 mmHg 59%

20 August, Thursday

Time Temperature Precipitation Wind Pressure Humidity
00:00 +25°C° 0 mm 2 mps 756 mmHg 60%
01:00 +25°C° 0 mm 2 mps 756 mmHg 62%
02:00 +24°C° 0 mm 1 mps 756 mmHg 63%
03:00 +24°C° 0 mm 1 mps 755 mmHg 65%
04:00 +24°C° 0 mm 1 mps 755 mmHg 66%
05:00 +25°C° 0 mm 1 mps 755 mmHg 62%
06:00 +26°C° 0 mm 2 mps 756 mmHg 58%
07:00 +27°C° 0 mm 2 mps 756 mmHg 53%
08:00 +29°C° 0 mm 2 mps 756 mmHg 48%
09:00 +33°C° 0 mm 3 mps 756 mmHg 43%
10:00 +35°C° 0 mm 3 mps 757 mmHg 37%
11:00 +35°C° 0 mm 4 mps 757 mmHg 38%
12:00 +36°C° 0 mm 4 mps 757 mmHg 39%
13:00 +36°C° 0 mm 4 mps 757 mmHg 40%
14:00 +36°C° 0 mm 4 mps 757 mmHg 41%
15:00 +35°C° 0 mm 4 mps 757 mmHg 42%
16:00 +35°C° 0 mm 4 mps 757 mmHg 43%
17:00 +33°C° 0 mm 4 mps 757 mmHg 50%
18:00 +30°C° 0 mm 3 mps 757 mmHg 57%
19:00 +28°C° 0 mm 3 mps 757 mmHg 64%
20:00 +27°C° 0 mm 3 mps 757 mmHg 67%
21:00 +26°C° 0 mm 3 mps 757 mmHg 70%
22:00 +25°C° 0 mm 2 mps 758 mmHg 73%
23:00 +25°C° 0 mm 2 mps 758 mmHg 70%
Show more